Zurück zum Katalog

CZ-6A DEB

AktivPO
NORAD 61362·DEBRIS·🇨🇳 China

Gestartet Aug 6, 2024 von Taiyuan Satellite Launch Center

Loading…

Nächste Überflüge (nächste 24 Stunden)

TLE

AktuellSource: Space-Track

Epoche: Sep 13, 2026, 01:25 UTC

1 61362U 24140WB  26256.05945388  .00000421  00000-0  21018-3 0  9994
2 61362  89.1123 276.1193 0071989 281.5100  77.8010 14.13893668104461

Verfolge CZ-6A DEB in Echtzeit mit AllMySat

Download on the App Store